Location: Coupvray
(48.8929°N, 2.7967°E)
Time: 20:58:35
(UTC+00:00)

Cosmos 1241 Rocket - Pass Details

Date: 29 October 2020
Orbit: 929 x 1018 km, 65.8° (Epoch: 30 November)

Event Time Altitude Azimuth Distance (km) Brightness Sun altitude
Rises 17:50:12 0° 248° (WSW) 3,647 9.1 -13.2°
Reaches altitude 10° 17:52:57 10° 256° (WSW) 2,717 8.3 -13.7°
Maximum altitude 17:58:49 37° 323° (NW) 1,487 5.8 -14.6°
Drops below altitude 10° 18:04:50 10° 30° (NNE) 2,784 6.6 -15.6°
Enters shadow 18:06:09 - 35° (NE) 3,219 6.9 -15.8°
